Time,TemperatureF,DewpointF,PressureIn,WindDirection,WindDirectionDegrees,WindSpeedMPH,WindSpeedGustMPH,Humidity,HourlyPrecipIn,Conditions,Clouds,dailyrainin,SoftwareType,DateUTC
2013-02-19 00:02:00,25.4,23.9,29.51,North,5,0.0,6.0,94,0.00,,,0.00,HR-IXPWINDi_r2_v1.2.,2013-02-19 06:02:00,
2013-02-19 00:07:00,25.3,23.6,29.51,SSW,196,1.0,4.0,93,0.00,,,0.00,HR-IXPWINDi_r2_v1.2.,2013-02-19 06:07:00,
2013-02-19 00:12:00,25.3,23.6,29.51,NW,313,2.0,4.0,93,0.00,,,0.00,HR-IXPWINDi_r2_v1.2.,2013-02-19 06:12:00,
2013-02-19 00:18:00,25.2,23.5,29.51,SW,225,0.0,5.0,93,0.00,,,0.00,HR-IXPWINDi_r2_v1.2.,2013-02-19 06:18:00,
2013-02-19 00:23:00,25.2,23.7,29.51,ENE,74,0.0,5.0,94,0.00,,,0.00,HR-IXPWINDi_r2_v1.2.,2013-02-19 06:23:00,
2013-02-19 00:28:00,25.1,23.6,29.51,NW,305,0.0,4.0,94,0.00,,,0.00,HR-IXPWINDi_r2_v1.2.,2013-02-19 06:28:00,
2013-02-19 00:33:00,25.1,23.6,29.52,East,94,0.0,2.0,94,0.00,,,0.00,HR-IXPWINDi_r2_v1.2.,2013-02-19 06:33:00,
2013-02-19 00:39:00,25.1,23.6,29.52,ENE,71,1.0,2.0,94,0.00,,,0.00,HR-IXPWINDi_r2_v1.2.,2013-02-19 06:39:00,
2013-02-19 00:44:00,25.1,23.6,29.51,NNW,337,0.0,4.0,94,0.00,,,0.00,HR-IXPWINDi_r2_v1.2.,2013-02-19 06:44:00,
2013-02-19 00:49:00,25.1,23.9,29.51,SW,219,0.0,4.0,95,0.00,,,0.00,HR-IXPWINDi_r2_v1.2.,2013-02-19 06:49:00,
2013-02-19 00:54:00,25.1,23.9,29.51,NNW,345,1.0,4.0,95,0.00,,,0.00,HR-IXPWINDi_r2_v1.2.,2013-02-19 06:54:00,
2013-02-19 00:59:00,25.1,23.9,29.51,NNE,15,0.0,4.0,95,0.00,,,0.00,HR-IXPWINDi_r2_v1.2.,2013-02-19 06:59:00,
2013-02-19 01:04:00,25.2,24.0,29.51,West,266,1.0,5.0,95,0.00,,,0.00,HR-IXPWINDi_r2_v1.2.,2013-02-19 07:04:00,
2013-02-19 01:09:00,25.2,24.0,29.51,NW,326,0.0,5.0,95,0.00,,,0.00,HR-IXPWINDi_r2_v1.2.,2013-02-19 07:09:00,
2013-02-19 01:14:00,25.2,24.0,29.51,SW,225,0.0,4.0,95,0.00,,,0.00,HR-IXPWINDi_r2_v1.2.,2013-02-19 07:14:00,
2013-02-19 01:20:00,25.2,24.0,29.51,South,180,0.0,4.0,95,0.00,,,0.00,HR-IXPWINDi_r2_v1.2.,2013-02-19 07:20:00,
2013-02-19 01:25:00,25.2,24.0,29.51,WSW,242,0.0,2.0,95,0.00,,,0.00,HR-IXPWINDi_r2_v1.2.,2013-02-19 07:25:00,
2013-02-19 01:30:00,25.2,24.0,29.51,ESE,109,1.0,4.0,95,0.00,,,0.00,HR-IXPWINDi_r2_v1.2.,2013-02-19 07:30:00,
2013-02-19 01:36:00,25.2,24.0,29.51,WSW,250,2.0,4.0,95,0.00,,,0.00,HR-IXPWINDi_r2_v1.2.,2013-02-19 07:36:00,
2013-02-19 01:41:00,25.2,24.0,29.51,WSW,247,1.0,4.0,95,0.00,,,0.00,HR-IXPWINDi_r2_v1.2.,2013-02-19 07:41:00,
2013-02-19 01:46:00,25.2,24.0,29.51,ENE,75,0.0,4.0,95,0.00,,,0.00,HR-IXPWINDi_r2_v1.2.,2013-02-19 07:46:00,
2013-02-19 01:52:00,25.2,24.0,29.51,WNW,286,2.0,4.0,95,0.00,,,0.00,HR-IXPWINDi_r2_v1.2.,2013-02-19 07:52:00,
2013-02-19 01:57:00,25.1,23.9,29.51,NW,311,1.0,4.0,95,0.00,,,0.00,HR-IXPWINDi_r2_v1.2.,2013-02-19 07:57:00,
2013-02-19 02:02:00,25.1,23.9,29.51,ESE,110,0.0,4.0,95,0.00,,,0.00,HR-IXPWINDi_r2_v1.2.,2013-02-19 08:02:00,
2013-02-19 02:07:00,25.0,23.8,29.51,NNE,15,0.0,4.0,95,0.00,,,0.00,HR-IXPWINDi_r2_v1.2.,2013-02-19 08:07:00,
2013-02-19 02:12:00,25.0,23.8,29.51,North,360,2.0,2.0,95,0.00,,,0.00,HR-IXPWINDi_r2_v1.2.,2013-02-19 08:12:00,
2013-02-19 02:17:00,25.0,23.8,29.51,NE,48,1.0,4.0,95,0.00,,,0.00,HR-IXPWINDi_r2_v1.2.,2013-02-19 08:17:00,
2013-02-19 02:22:00,24.9,23.7,29.51,West,274,2.0,4.0,95,0.00,,,0.00,HR-IXPWINDi_r2_v1.2.,2013-02-19 08:22:00,
2013-02-19 02:28:00,24.5,23.3,29.51,West,267,2.0,5.0,95,0.00,,,0.00,HR-IXPWINDi_r2_v1.2.,2013-02-19 08:28:00,
2013-02-19 02:33:00,23.9,22.4,29.52,South,190,3.0,7.0,94,0.00,,,0.00,HR-IXPWINDi_r2_v1.2.,2013-02-19 08:33:00,
2013-02-19 02:38:00,23.5,21.8,29.52,NNW,348,2.0,7.0,93,0.00,,,0.00,HR-IXPWINDi_r2_v1.2.,2013-02-19 08:38:00,
2013-02-19 02:43:00,22.9,20.9,29.52,NW,308,4.0,7.0,92,0.00,,,0.00,HR-IXPWINDi_r2_v1.2.,2013-02-19 08:43:00,
2013-02-19 02:49:00,22.3,20.3,29.52,West,265,2.0,8.0,92,0.00,,,0.00,HR-IXPWINDi_r2_v1.2.,2013-02-19 08:49:00,
2013-02-19 02:54:00,21.8,19.8,29.53,NNE,30,1.0,8.0,92,0.00,,,0.00,HR-IXPWINDi_r2_v1.2.,2013-02-19 08:54:00,
2013-02-19 02:59:00,21.4,19.5,29.53,ENE,67,2.0,7.0,92,0.00,,,0.00,HR-IXPWINDi_r2_v1.2.,2013-02-19 08:59:00,
2013-02-19 03:04:00,21.0,19.1,29.54,ENE,60,2.0,5.0,92,0.00,,,0.00,HR-IXPWINDi_r2_v1.2.,2013-02-19 09:04:00,
2013-02-19 03:10:00,20.7,18.8,29.54,SW,226,1.0,6.0,92,0.00,,,0.00,HR-IXPWINDi_r2_v1.2.,2013-02-19 09:10:00,
2013-02-19 03:15:00,20.3,18.1,29.54,NW,316,0.0,6.0,91,0.00,,,0.00,HR-IXPWINDi_r2_v1.2.,2013-02-19 09:15:00,
2013-02-19 03:20:00,19.9,17.7,29.54,South,169,0.0,6.0,91,0.00,,,0.00,HR-IXPWINDi_r2_v1.2.,2013-02-19 09:20:00,
2013-02-19 03:25:00,19.7,17.5,29.54,ENE,71,0.0,7.0,91,0.00,,,0.00,HR-IXPWINDi_r2_v1.2.,2013-02-19 09:25:00,
2013-02-19 03:30:00,19.3,16.9,29.54,NW,326,2.0,7.0,90,0.00,,,0.00,HR-IXPWINDi_r2_v1.2.,2013-02-19 09:30:00,
2013-02-19 03:35:00,19.1,16.9,29.54,West,260,1.0,7.0,91,0.00,,,0.00,HR-IXPWINDi_r2_v1.2.,2013-02-19 09:35:00,
2013-02-19 03:41:00,18.9,16.7,29.54,WNW,300,3.0,5.0,91,0.00,,,0.00,HR-IXPWINDi_r2_v1.2.,2013-02-19 09:41:00,
2013-02-19 03:46:00,18.8,16.9,29.54,NNE,32,0.0,3.0,92,0.00,,,0.00,HR-IXPWINDi_r2_v1.2.,2013-02-19 09:46:00,
2013-02-19 03:51:00,18.6,16.7,29.54,SW,225,1.0,3.0,92,0.00,,,0.00,HR-IXPWINDi_r2_v1.2.,2013-02-19 09:51:00,
2013-02-19 03:56:00,18.4,16.5,29.55,NNE,30,2.0,3.0,92,0.00,,,0.00,HR-IXPWINDi_r2_v1.2.,2013-02-19 09:56:00,
2013-02-19 04:02:00,18.2,16.0,29.55,WNW,291,2.0,5.0,91,0.00,,,0.00,HR-IXPWINDi_r2_v1.2.,2013-02-19 10:02:00,
2013-02-19 04:07:00,18.0,15.8,29.55,NNE,17,2.0,6.0,91,0.00,,,0.00,HR-IXPWINDi_r2_v1.2.,2013-02-19 10:07:00,
2013-02-19 04:12:00,17.8,15.6,29.55,NW,315,0.0,6.0,91,0.00,,,0.00,HR-IXPWINDi_r2_v1.2.,2013-02-19 10:12:00,
2013-02-19 04:17:00,17.5,15.4,29.55,West,274,2.0,6.0,91,0.00,,,0.00,HR-IXPWINDi_r2_v1.2.,2013-02-19 10:17:00,
2013-02-19 04:22:00,17.2,15.1,29.55,NW,310,2.0,6.0,91,0.00,,,0.00,HR-IXPWINDi_r2_v1.2.,2013-02-19 10:22:00,
2013-02-19 04:27:00,17.0,14.9,29.55,West,281,1.0,5.0,91,0.00,,,0.00,HR-IXPWINDi_r2_v1.2.,2013-02-19 10:27:00,
2013-02-19 04:33:00,16.6,14.5,29.56,South,188,3.0,6.0,91,0.00,,,0.00,HR-IXPWINDi_r2_v1.2.,2013-02-19 10:33:00,
2013-02-19 04:38:00,16.4,14.0,29.56,NE,56,0.0,6.0,90,0.00,,,0.00,HR-IXPWINDi_r2_v1.2.,2013-02-19 10:38:00,
2013-02-19 04:43:00,16.2,13.6,29.56,South,187,0.0,5.0,89,0.00,,,0.00,HR-IXPWINDi_r2_v1.2.,2013-02-19 10:43:00,
2013-02-19 04:48:00,16.0,13.4,29.57,NW,305,3.0,7.0,89,0.00,,,0.00,HR-IXPWINDi_r2_v1.2.,2013-02-19 10:48:00,
2013-02-19 04:53:00,16.0,13.6,29.57,SW,220,3.0,7.0,90,0.00,,,0.00,HR-IXPWINDi_r2_v1.2.,2013-02-19 10:53:00,
2013-02-19 04:58:00,15.8,13.4,29.57,WNW,301,0.0,6.0,90,0.00,,,0.00,HR-IXPWINDi_r2_v1.2.,2013-02-19 10:58:00,
2013-02-19 05:04:00,15.7,13.3,29.58,North,355,0.0,6.0,90,0.00,,,0.00,HR-IXPWINDi_r2_v1.2.,2013-02-19 11:04:00,
2013-02-19 05:09:00,15.4,12.8,29.58,WSW,251,3.0,6.0,89,0.00,,,0.00,HR-IXPWINDi_r2_v1.2.,2013-02-19 11:09:00,
2013-02-19 05:14:00,15.2,12.3,29.58,NNW,329,1.0,6.0,88,0.00,,,0.00,HR-IXPWINDi_r2_v1.2.,2013-02-19 11:14:00,
2013-02-19 05:19:00,14.9,12.0,29.59,ENE,60,1.0,7.0,88,0.00,,,0.00,HR-IXPWINDi_r2_v1.2.,2013-02-19 11:19:00,
2013-02-19 05:24:00,14.6,11.7,29.59,North,360,2.0,7.0,88,0.00,,,0.00,HR-IXPWINDi_r2_v1.2.,2013-02-19 11:24:00,
2013-02-19 05:30:00,14.3,11.2,29.60,NW,305,1.0,6.0,87,0.00,,,0.00,HR-IXPWINDi_r2_v1.2.,2013-02-19 11:30:00,
2013-02-19 05:35:00,14.0,10.9,29.61,North,355,1.0,7.0,87,0.00,,,0.00,HR-IXPWINDi_r2_v1.2.,2013-02-19 11:35:00,
2013-02-19 05:40:00,13.8,10.7,29.61,ENE,59,0.0,7.0,87,0.00,,,0.00,HR-IXPWINDi_r2_v1.2.,2013-02-19 11:40:00,
2013-02-19 05:46:00,13.7,10.9,29.61,North,5,0.0,5.0,88,0.00,,,0.00,HR-IXPWINDi_r2_v1.2.,2013-02-19 11:46:00,
2013-02-19 05:51:00,13.7,11.1,29.62,SW,221,0.0,6.0,89,0.00,,,0.00,HR-IXPWINDi_r2_v1.2.,2013-02-19 11:51:00,
2013-02-19 05:56:00,13.5,10.7,29.62,WSW,252,0.0,6.0,88,0.00,,,0.00,HR-IXPWINDi_r2_v1.2.,2013-02-19 11:56:00,
2013-02-19 06:01:00,13.2,10.1,29.62,WNW,293,1.0,6.0,87,0.00,,,0.00,HR-IXPWINDi_r2_v1.2.,2013-02-19 12:01:00,
2013-02-19 06:06:00,12.9,9.8,29.62,East,80,0.0,6.0,87,0.00,,,0.00,HR-IXPWINDi_r2_v1.2.,2013-02-19 12:06:00,
2013-02-19 06:11:00,12.8,9.7,29.63,ESE,103,0.0,6.0,87,0.00,,,0.00,HR-IXPWINDi_r2_v1.2.,2013-02-19 12:11:00,
2013-02-19 06:17:00,12.7,9.9,29.63,ENE,61,1.0,6.0,88,0.00,,,0.00,HR-IXPWINDi_r2_v1.2.,2013-02-19 12:17:00,
2013-02-19 06:22:00,12.7,9.9,29.63,ESE,123,2.0,5.0,88,0.00,,,0.00,HR-IXPWINDi_r2_v1.2.,2013-02-19 12:22:00,
2013-02-19 06:27:00,12.5,9.7,29.63,NNE,26,1.0,5.0,88,0.00,,,0.00,HR-IXPWINDi_r2_v1.2.,2013-02-19 12:27:00,
2013-02-19 06:32:00,12.3,9.5,29.64,SSW,211,1.0,5.0,88,0.00,,,0.00,HR-IXPWINDi_r2_v1.2.,2013-02-19 12:32:00,
2013-02-19 06:38:00,12.1,9.3,29.64,ESE,110,0.0,5.0,88,0.00,,,0.00,HR-IXPWINDi_r2_v1.2.,2013-02-19 12:38:00,
2013-02-19 06:43:00,11.8,8.7,29.64,West,260,2.0,4.0,87,0.00,,,0.00,HR-IXPWINDi_r2_v1.2.,2013-02-19 12:43:00,
2013-02-19 06:48:00,11.6,8.5,29.65,NE,42,1.0,4.0,87,0.00,,,0.00,HR-IXPWINDi_r2_v1.2.,2013-02-19 12:48:00,
2013-02-19 06:53:00,11.5,8.7,29.65,SE,132,2.0,5.0,88,0.00,,,0.00,HR-IXPWINDi_r2_v1.2.,2013-02-19 12:53:00,
2013-02-19 06:58:00,11.4,8.6,29.65,NW,315,0.0,5.0,88,0.00,,,0.00,HR-IXPWINDi_r2_v1.2.,2013-02-19 12:58:00,
2013-02-19 07:03:00,11.3,8.5,29.66,ESE,104,1.0,5.0,88,0.00,,,0.00,HR-IXPWINDi_r2_v1.2.,2013-02-19 13:03:00,
2013-02-19 07:08:00,11.1,8.3,29.66,WNW,301,1.0,5.0,88,0.00,,,0.00,HR-IXPWINDi_r2_v1.2.,2013-02-19 13:08:00,
2013-02-19 07:14:00,11.0,8.0,29.66,ESE,115,1.0,4.0,87,0.00,,,0.00,HR-IXPWINDi_r2_v1.2.,2013-02-19 13:14:00,
2013-02-19 07:19:00,10.9,8.1,29.66,ENE,66,1.0,4.0,88,0.00,,,0.00,HR-IXPWINDi_r2_v1.2.,2013-02-19 13:19:00,
2013-02-19 07:24:00,10.8,8.0,29.67,NW,317,1.0,4.0,88,0.00,,,0.00,HR-IXPWINDi_r2_v1.2.,2013-02-19 13:24:00,
2013-02-19 07:29:00,10.8,7.8,29.67,NW,316,1.0,6.0,87,0.00,,,0.00,HR-IXPWINDi_r2_v1.2.,2013-02-19 13:29:00,
2013-02-19 07:34:00,10.7,7.9,29.67,ENE,60,0.0,6.0,88,0.00,,,0.00,HR-IXPWINDi_r2_v1.2.,2013-02-19 13:34:00,
2013-02-19 07:39:00,10.6,7.6,29.68,South,177,0.0,6.0,87,0.00,,,0.00,HR-IXPWINDi_r2_v1.2.,2013-02-19 13:39:00,
2013-02-19 07:44:00,10.6,7.6,29.68,SW,228,1.0,5.0,87,0.00,,,0.00,HR-IXPWINDi_r2_v1.2.,2013-02-19 13:44:00,
2013-02-19 07:50:00,10.5,7.5,29.68,WNW,303,1.0,5.0,87,0.00,,,0.00,HR-IXPWINDi_r2_v1.2.,2013-02-19 13:50:00,
2013-02-19 07:55:00,10.4,7.4,29.69,SSW,192,1.0,5.0,87,0.00,,,0.00,HR-IXPWINDi_r2_v1.2.,2013-02-19 13:55:00,
2013-02-19 08:00:00,10.3,7.3,29.69,WNW,293,0.0,6.0,87,0.00,,,0.00,HR-IXPWINDi_r2_v1.2.,2013-02-19 14:00:00,
2013-02-19 08:06:00,10.2,7.2,29.69,WSW,246,0.0,6.0,87,0.00,,,0.00,HR-IXPWINDi_r2_v1.2.,2013-02-19 14:06:00,
2013-02-19 08:11:00,10.1,6.8,29.70,NNW,330,1.0,7.0,86,0.00,,,0.00,HR-IXPWINDi_r2_v1.2.,2013-02-19 14:11:00,
2013-02-19 08:16:00,10.1,7.1,29.70,NW,313,0.0,7.0,87,0.00,,,0.00,HR-IXPWINDi_r2_v1.2.,2013-02-19 14:16:00,
2013-02-19 08:21:00,10.2,7.2,29.69,NW,326,2.0,7.0,87,0.00,,,0.00,HR-IXPWINDi_r2_v1.2.,2013-02-19 14:21:00,
2013-02-19 08:26:00,10.1,6.8,29.70,WNW,282,1.0,8.0,86,0.00,,,0.00,HR-IXPWINDi_r2_v1.2.,2013-02-19 14:26:00,
2013-02-19 08:31:00,10.2,6.9,29.70,South,183,1.0,8.0,86,0.00,,,0.00,HR-IXPWINDi_r2_v1.2.,2013-02-19 14:31:00,
2013-02-19 08:36:00,10.2,6.9,29.71,NNW,341,2.0,6.0,86,0.00,,,0.00,HR-IXPWINDi_r2_v1.2.,2013-02-19 14:36:00,
2013-02-19 08:42:00,10.3,7.0,29.71,SW,218,4.0,6.0,86,0.00,,,0.00,HR-IXPWINDi_r2_v1.2.,2013-02-19 14:42:00,
2013-02-19 08:47:00,10.5,7.2,29.71,NW,312,4.0,8.0,86,0.00,,,0.00,HR-IXPWINDi_r2_v1.2.,2013-02-19 14:47:00,
2013-02-19 08:52:00,10.4,6.6,29.72,NNE,17,1.0,9.0,84,0.00,,,0.00,HR-IXPWINDi_r2_v1.2.,2013-02-19 14:52:00,
2013-02-19 08:57:00,10.5,7.0,29.72,SW,227,1.0,10.0,85,0.00,,,0.00,HR-IXPWINDi_r2_v1.2.,2013-02-19 14:57:00,
2013-02-19 09:02:00,10.6,6.8,29.72,WNW,288,2.0,10.0,84,0.00,,,0.00,HR-IXPWINDi_r2_v1.2.,2013-02-19 15:02:00,
2013-02-19 09:07:00,10.6,6.8,29.72,East,98,0.0,6.0,84,0.00,,,0.00,HR-IXPWINDi_r2_v1.2.,2013-02-19 15:07:00,
2013-02-19 09:13:00,10.5,6.7,29.72,NW,316,1.0,6.0,84,0.00,,,0.00,HR-IXPWINDi_r2_v1.2.,2013-02-19 15:13:00,
2013-02-19 09:18:00,10.4,6.6,29.72,NNE,25,0.0,6.0,84,0.00,,,0.00,HR-IXPWINDi_r2_v1.2.,2013-02-19 15:18:00,
2013-02-19 09:23:00,10.3,6.2,29.73,NW,316,3.0,6.0,83,0.00,,,0.00,HR-IXPWINDi_r2_v1.2.,2013-02-19 15:23:00,
2013-02-19 09:28:00,10.1,6.0,29.73,West,278,1.0,7.0,83,0.00,,,0.00,HR-IXPWINDi_r2_v1.2.,2013-02-19 15:28:00,
2013-02-19 09:33:00,10.0,5.7,29.74,NNW,342,0.0,7.0,82,0.00,,,0.00,HR-IXPWINDi_r2_v1.2.,2013-02-19 15:33:00,
2013-02-19 09:39:00,10.0,5.7,29.74,East,88,1.0,6.0,82,0.00,,,0.00,HR-IXPWINDi_r2_v1.2.,2013-02-19 15:39:00,
2013-02-19 09:44:00,10.0,5.9,29.74,WNW,292,3.0,6.0,83,0.00,,,0.00,HR-IXPWINDi_r2_v1.2.,2013-02-19 15:44:00,
2013-02-19 09:49:00,9.9,5.6,29.74,SSW,199,1.0,9.0,82,0.00,,,0.00,HR-IXPWINDi_r2_v1.2.,2013-02-19 15:49:00,
2013-02-19 09:54:00,10.0,5.7,29.75,SE,138,1.0,9.0,82,0.00,,,0.00,HR-IXPWINDi_r2_v1.2.,2013-02-19 15:54:00,
2013-02-19 09:59:00,10.1,5.8,29.75,SSW,213,2.0,7.0,82,0.00,,,0.00,HR-IXPWINDi_r2_v1.2.,2013-02-19 15:59:00,
2013-02-19 10:04:00,10.3,6.0,29.75,NE,49,3.0,7.0,82,0.00,,,0.00,HR-IXPWINDi_r2_v1.2.,2013-02-19 16:04:00,
2013-02-19 10:09:00,10.2,5.6,29.76,South,170,0.0,8.0,81,0.00,,,0.00,HR-IXPWINDi_r2_v1.2.,2013-02-19 16:09:00,
2013-02-19 10:14:00,10.3,6.0,29.76,WNW,300,0.0,8.0,82,0.00,,,0.00,HR-IXPWINDi_r2_v1.2.,2013-02-19 16:14:00,
2013-02-19 10:20:00,10.5,6.2,29.76,West,269,1.0,7.0,82,0.00,,,0.00,HR-IXPWINDi_r2_v1.2.,2013-02-19 16:20:00,
2013-02-19 10:25:00,10.5,5.6,29.76,SE,130,1.0,7.0,80,0.00,,,0.00,HR-IXPWINDi_r2_v1.2.,2013-02-19 16:25:00,
2013-02-19 10:30:00,10.5,5.6,29.77,SSW,205,2.0,7.0,80,0.00,,,0.00,HR-IXPWINDi_r2_v1.2.,2013-02-19 16:30:00,
2013-02-19 10:35:00,10.4,5.8,29.76,NNE,33,0.0,7.0,81,0.00,,,0.00,HR-IXPWINDi_r2_v1.2.,2013-02-19 16:35:00,
2013-02-19 10:41:00,10.6,6.0,29.76,WNW,288,3.0,6.0,81,0.00,,,0.00,HR-IXPWINDi_r2_v1.2.,2013-02-19 16:41:00,
2013-02-19 10:46:00,10.8,6.2,29.77,ESE,116,1.0,5.0,81,0.00,,,0.00,HR-IXPWINDi_r2_v1.2.,2013-02-19 16:46:00,
2013-02-19 10:51:00,11.1,6.5,29.77,WSW,246,2.0,7.0,81,0.00,,,0.00,HR-IXPWINDi_r2_v1.2.,2013-02-19 16:51:00,
2013-02-19 10:56:00,11.3,6.7,29.77,NNE,13,0.0,7.0,81,0.00,,,0.00,HR-IXPWINDi_r2_v1.2.,2013-02-19 16:56:00,
2013-02-19 11:01:00,11.5,6.6,29.78,SE,133,5.0,5.0,80,0.00,,,0.00,HR-IXPWINDi_r2_v1.2.,2013-02-19 17:01:00,
2013-02-19 11:06:00,11.6,6.7,29.78,SE,138,0.0,7.0,80,0.00,,,0.00,HR-IXPWINDi_r2_v1.2.,2013-02-19 17:06:00,
2013-02-19 11:12:00,11.8,6.9,29.78,SE,138,5.0,7.0,80,0.00,,,0.00,HR-IXPWINDi_r2_v1.2.,2013-02-19 17:12:00,
2013-02-19 11:17:00,11.5,6.3,29.79,SE,142,6.0,7.0,79,0.00,,,0.00,HR-IXPWINDi_r2_v1.2.,2013-02-19 17:17:00,
2013-02-19 11:22:00,11.1,5.7,29.79,SE,132,2.0,9.0,78,0.00,,,0.00,HR-IXPWINDi_r2_v1.2.,2013-02-19 17:22:00,
2013-02-19 11:27:00,11.1,6.2,29.79,ESE,105,4.0,9.0,80,0.00,,,0.00,HR-IXPWINDi_r2_v1.2.,2013-02-19 17:27:00,
2013-02-19 11:32:00,11.1,5.9,29.80,ESE,107,0.0,6.0,79,0.00,,,0.00,HR-IXPWINDi_r2_v1.2.,2013-02-19 17:32:00,
2013-02-19 11:37:00,11.1,5.9,29.80,NNE,24,5.0,6.0,79,0.00,,,0.00,HR-IXPWINDi_r2_v1.2.,2013-02-19 17:37:00,
2013-02-19 11:42:00,11.0,5.8,29.80,NNW,329,1.0,7.0,79,0.00,,,0.00,HR-IXPWINDi_r2_v1.2.,2013-02-19 17:42:00,
2013-02-19 11:47:00,11.1,5.9,29.80,NNW,338,2.0,9.0,79,0.00,,,0.00,HR-IXPWINDi_r2_v1.2.,2013-02-19 17:47:00,
2013-02-19 11:53:00,11.3,6.1,29.80,North,5,1.0,9.0,79,0.00,,,0.00,HR-IXPWINDi_r2_v1.2.,2013-02-19 17:53:00,
2013-02-19 11:58:00,11.7,7.1,29.80,WNW,303,1.0,7.0,81,0.00,,,0.00,HR-IXPWINDi_r2_v1.2.,2013-02-19 17:58:00,
2013-02-19 12:03:00,11.9,6.7,29.81,East,97,2.0,6.0,79,0.00,,,0.00,HR-IXPWINDi_r2_v1.2.,2013-02-19 18:03:00,
2013-02-19 12:08:00,11.8,6.3,29.81,NE,38,2.0,6.0,78,0.00,,,0.00,HR-IXPWINDi_r2_v1.2.,2013-02-19 18:08:00,
2013-02-19 12:13:00,11.5,6.0,29.82,SW,225,5.0,6.0,78,0.00,,,0.00,HR-IXPWINDi_r2_v1.2.,2013-02-19 18:13:00,
2013-02-19 12:18:00,11.1,5.9,29.82,West,279,3.0,6.0,79,0.00,,,0.00,HR-IXPWINDi_r2_v1.2.,2013-02-19 18:18:00,
2013-02-19 12:23:00,10.8,5.9,29.82,SE,143,0.0,8.0,80,0.00,,,0.00,HR-IXPWINDi_r2_v1.2.,2013-02-19 18:23:00,
2013-02-19 12:28:00,10.9,6.3,29.82,NW,309,0.0,8.0,81,0.00,,,0.00,HR-IXPWINDi_r2_v1.2.,2013-02-19 18:28:00,
2013-02-19 12:34:00,10.9,6.0,29.83,NNW,331,1.0,7.0,80,0.00,,,0.00,HR-IXPWINDi_r2_v1.2.,2013-02-19 18:34:00,
2013-02-19 12:39:00,11.0,6.1,29.83,North,5,2.0,6.0,80,0.00,,,0.00,HR-IXPWINDi_r2_v1.2.,2013-02-19 18:39:00,
2013-02-19 12:44:00,10.9,6.0,29.83,SW,223,4.0,6.0,80,0.00,,,0.00,HR-IXPWINDi_r2_v1.2.,2013-02-19 18:44:00,
2013-02-19 12:49:00,10.9,6.0,29.83,NE,45,0.0,6.0,80,0.00,,,0.00,HR-IXPWINDi_r2_v1.2.,2013-02-19 18:49:00,
2013-02-19 12:54:00,11.2,6.3,29.84,SW,221,2.0,6.0,80,0.00,,,0.00,HR-IXPWINDi_r2_v1.2.,2013-02-19 18:54:00,
2013-02-19 12:59:00,11.0,6.4,29.84,NNW,327,2.0,5.0,81,0.00,,,0.00,HR-IXPWINDi_r2_v1.2.,2013-02-19 18:59:00,
2013-02-19 13:04:00,10.9,6.6,29.84,NW,315,4.0,5.0,82,0.00,,,0.00,HR-IXPWINDi_r2_v1.2.,2013-02-19 19:04:00,
2013-02-19 13:09:00,10.9,6.6,29.85,NW,313,1.0,5.0,82,0.00,,,0.00,HR-IXPWINDi_r2_v1.2.,2013-02-19 19:09:00,
2013-02-19 13:15:00,10.9,6.6,29.85,WNW,298,1.0,7.0,82,0.00,,,0.00,HR-IXPWINDi_r2_v1.2.,2013-02-19 19:15:00,
2013-02-19 13:20:00,10.6,6.3,29.86,SSW,194,1.0,7.0,82,0.00,,,0.00,HR-IXPWINDi_r2_v1.2.,2013-02-19 19:20:00,
2013-02-19 13:25:00,10.5,6.4,29.86,SW,219,1.0,7.0,83,0.00,,,0.00,HR-IXPWINDi_r2_v1.2.,2013-02-19 19:25:00,
2013-02-19 13:31:00,10.5,6.4,29.86,West,260,0.0,6.0,83,0.00,,,0.00,HR-IXPWINDi_r2_v1.2.,2013-02-19 19:31:00,
2013-02-19 13:36:00,10.6,6.3,29.86,WNW,296,1.0,6.0,82,0.00,,,0.00,HR-IXPWINDi_r2_v1.2.,2013-02-19 19:36:00,
2013-02-19 13:41:00,10.7,6.1,29.87,SSE,148,0.0,6.0,81,0.00,,,0.00,HR-IXPWINDi_r2_v1.2.,2013-02-19 19:41:00,
2013-02-19 13:46:00,10.8,6.2,29.87,NW,307,2.0,6.0,81,0.00,,,0.00,HR-IXPWINDi_r2_v1.2.,2013-02-19 19:46:00,
2013-02-19 13:51:00,10.8,5.9,29.88,ESE,121,0.0,6.0,80,0.00,,,0.00,HR-IXPWINDi_r2_v1.2.,2013-02-19 19:51:00,
2013-02-19 13:57:00,10.9,5.7,29.88,WNW,297,1.0,6.0,79,0.00,,,0.00,HR-IXPWINDi_r2_v1.2.,2013-02-19 19:57:00,
2013-02-19 14:01:00,11.0,5.6,29.88,NW,320,1.0,6.0,78,0.00,,,0.00,HR-IXPWINDi_r2_v1.2.,2013-02-19 20:01:00,
2013-02-19 14:07:00,10.8,4.8,29.88,NNE,28,6.0,10.0,76,0.00,,,0.00,HR-IXPWINDi_r2_v1.2.,2013-02-19 20:07:00,
2013-02-19 14:12:00,10.2,4.2,29.88,NNW,327,3.0,10.0,76,0.00,,,0.00,HR-IXPWINDi_r2_v1.2.,2013-02-19 20:12:00,
2013-02-19 14:17:00,9.7,3.5,29.89,NW,306,6.0,9.0,75,0.00,,,0.00,HR-IXPWINDi_r2_v1.2.,2013-02-19 20:17:00,
2013-02-19 14:23:00,9.6,3.6,29.90,WSW,247,1.0,8.0,76,0.00,,,0.00,HR-IXPWINDi_r2_v1.2.,2013-02-19 20:23:00,
2013-02-19 14:28:00,9.5,3.3,29.90,NNW,327,3.0,8.0,75,0.00,,,0.00,HR-IXPWINDi_r2_v1.2.,2013-02-19 20:28:00,
2013-02-19 14:33:00,9.5,3.3,29.91,NNW,329,4.0,9.0,75,0.00,,,0.00,HR-IXPWINDi_r2_v1.2.,2013-02-19 20:33:00,
2013-02-19 14:38:00,9.7,3.5,29.90,SW,223,1.0,9.0,75,0.00,,,0.00,HR-IXPWINDi_r2_v1.2.,2013-02-19 20:38:00,
2013-02-19 14:43:00,10.0,4.0,29.91,NW,323,4.0,9.0,76,0.00,,,0.00,HR-IXPWINDi_r2_v1.2.,2013-02-19 20:43:00,
2013-02-19 14:48:00,9.9,3.7,29.91,WNW,287,1.0,6.0,75,0.00,,,0.00,HR-IXPWINDi_r2_v1.2.,2013-02-19 20:48:00,
2013-02-19 14:53:00,9.6,3.4,29.92,WNW,286,4.0,6.0,75,0.00,,,0.00,HR-IXPWINDi_r2_v1.2.,2013-02-19 20:53:00,
2013-02-19 14:58:00,9.1,2.6,29.92,NE,49,5.0,12.0,74,0.00,,,0.00,HR-IXPWINDi_r2_v1.2.,2013-02-19 20:58:00,
2013-02-19 15:04:00,8.7,2.5,29.92,WSW,258,2.0,12.0,75,0.00,,,0.00,HR-IXPWINDi_r2_v1.2.,2013-02-19 21:04:00,
2013-02-19 15:09:00,8.7,2.5,29.93,West,281,3.0,9.0,75,0.00,,,0.00,HR-IXPWINDi_r2_v1.2.,2013-02-19 21:09:00,
2013-02-19 15:14:00,8.4,1.9,29.94,ENE,67,4.0,6.0,74,0.00,,,0.00,HR-IXPWINDi_r2_v1.2.,2013-02-19 21:14:00,
2013-02-19 15:19:00,8.0,1.5,29.94,ESE,113,2.0,8.0,74,0.00,,,0.00,HR-IXPWINDi_r2_v1.2.,2013-02-19 21:19:00,
2013-02-19 15:24:00,7.9,1.4,29.95,NW,317,3.0,10.0,74,0.00,,,0.00,HR-IXPWINDi_r2_v1.2.,2013-02-19 21:24:00,
2013-02-19 15:30:00,7.9,1.4,29.95,SW,220,2.0,10.0,74,0.00,,,0.00,HR-IXPWINDi_r2_v1.2.,2013-02-19 21:30:00,
2013-02-19 15:35:00,7.8,1.6,29.96,WNW,293,3.0,7.0,75,0.00,,,0.00,HR-IXPWINDi_r2_v1.2.,2013-02-19 21:35:00,
2013-02-19 15:40:00,7.6,1.1,29.96,NW,313,0.0,8.0,74,0.00,,,0.00,HR-IXPWINDi_r2_v1.2.,2013-02-19 21:40:00,
2013-02-19 15:45:00,7.6,1.4,29.97,SE,126,7.0,8.0,75,0.00,,,0.00,HR-IXPWINDi_r2_v1.2.,2013-02-19 21:45:00,
2013-02-19 15:50:00,7.3,1.1,29.97,WSW,255,5.0,8.0,75,0.00,,,0.00,HR-IXPWINDi_r2_v1.2.,2013-02-19 21:50:00,
2013-02-19 15:55:00,7.1,1.2,29.97,WNW,290,6.0,8.0,76,0.00,,,0.00,HR-IXPWINDi_r2_v1.2.,2013-02-19 21:55:00,
2013-02-19 16:00:00,6.7,0.6,29.98,NNE,33,2.0,8.0,75,0.00,,,0.00,HR-IXPWINDi_r2_v1.2.,2013-02-19 22:00:00,
2013-02-19 16:05:00,6.6,1.0,29.99,NW,320,2.0,7.0,77,0.00,,,0.00,HR-IXPWINDi_r2_v1.2.,2013-02-19 22:05:00,
2013-02-19 16:11:00,6.5,0.9,29.99,NW,323,1.0,7.0,77,0.00,,,0.00,HR-IXPWINDi_r2_v1.2.,2013-02-19 22:11:00,
2013-02-19 16:16:00,6.4,0.8,30.00,SW,228,1.0,7.0,77,0.00,,,0.00,HR-IXPWINDi_r2_v1.2.,2013-02-19 22:16:00,
2013-02-19 16:21:00,6.4,0.8,30.00,West,281,2.0,5.0,77,0.00,,,0.00,HR-IXPWINDi_r2_v1.2.,2013-02-19 22:21:00,
2013-02-19 16:26:00,6.3,1.0,30.00,NNE,28,1.0,7.0,78,0.00,,,0.00,HR-IXPWINDi_r2_v1.2.,2013-02-19 22:26:00,
2013-02-19 16:31:00,6.3,1.0,30.00,ENE,58,1.0,7.0,78,0.00,,,0.00,HR-IXPWINDi_r2_v1.2.,2013-02-19 22:31:00,
2013-02-19 16:37:00,6.2,1.2,30.00,ESE,106,1.0,7.0,79,0.00,,,0.00,HR-IXPWINDi_r2_v1.2.,2013-02-19 22:37:00,
2013-02-19 16:42:00,6.2,0.9,30.01,East,82,2.0,5.0,78,0.00,,,0.00,HR-IXPWINDi_r2_v1.2.,2013-02-19 22:42:00,
2013-02-19 16:47:00,6.1,0.8,30.01,West,277,1.0,7.0,78,0.00,,,0.00,HR-IXPWINDi_r2_v1.2.,2013-02-19 22:47:00,
2013-02-19 16:53:00,5.9,0.9,30.02,SW,232,3.0,7.0,79,0.00,,,0.00,HR-IXPWINDi_r2_v1.2.,2013-02-19 22:53:00,
2013-02-19 16:58:00,5.8,0.8,30.02,SSE,164,0.0,6.0,79,0.00,,,0.00,HR-IXPWINDi_r2_v1.2.,2013-02-19 22:58:00,
2013-02-19 17:03:00,5.6,0.6,30.02,West,259,2.0,6.0,79,0.00,,,0.00,HR-IXPWINDi_r2_v1.2.,2013-02-19 23:03:00,
2013-02-19 17:08:00,5.6,0.6,30.03,WNW,285,4.0,7.0,79,0.00,,,0.00,HR-IXPWINDi_r2_v1.2.,2013-02-19 23:08:00,
2013-02-19 17:13:00,5.4,0.7,30.03,WNW,294,0.0,7.0,80,0.00,,,0.00,HR-IXPWINDi_r2_v1.2.,2013-02-19 23:13:00,
2013-02-19 17:18:00,5.3,0.6,30.03,WNW,302,2.0,7.0,80,0.00,,,0.00,HR-IXPWINDi_r2_v1.2.,2013-02-19 23:18:00,
2013-02-19 17:23:00,5.1,0.7,30.04,North,5,2.0,7.0,81,0.00,,,0.00,HR-IXPWINDi_r2_v1.2.,2013-02-19 23:23:00,
2013-02-19 17:28:00,5.0,0.6,30.03,SE,133,0.0,4.0,81,0.00,,,0.00,HR-IXPWINDi_r2_v1.2.,2013-02-19 23:28:00,
2013-02-19 17:33:00,4.9,0.5,30.03,East,96,2.0,6.0,81,0.00,,,0.00,HR-IXPWINDi_r2_v1.2.,2013-02-19 23:33:00,
2013-02-19 17:38:00,4.8,0.4,30.03,ESE,120,4.0,7.0,81,0.00,,,0.00,HR-IXPWINDi_r2_v1.2.,2013-02-19 23:38:00,
2013-02-19 17:43:00,4.7,0.3,30.04,NW,313,0.0,7.0,81,0.00,,,0.00,HR-IXPWINDi_r2_v1.2.,2013-02-19 23:43:00,
2013-02-19 17:48:00,4.5,0.1,30.04,SE,142,1.0,7.0,81,0.00,,,0.00,HR-IXPWINDi_r2_v1.2.,2013-02-19 23:48:00,
2013-02-19 17:53:00,4.4,0.2,30.04,ESE,102,2.0,4.0,82,0.00,,,0.00,HR-IXPWINDi_r2_v1.2.,2013-02-19 23:53:00,
2013-02-19 17:59:00,4.2,0.0,30.05,ENE,61,0.0,4.0,81,0.00,,,0.00,HR-IXPWINDi_r2_v1.2.,2013-02-19 23:59:00,
2013-02-19 18:04:00,4.1,-0.1,30.05,North,360,0.0,4.0,81,0.00,,,0.00,HR-IXPWINDi_r2_v1.2.,2013-02-20 00:04:00,
2013-02-19 18:09:00,4.0,0.0,30.05,SSE,150,1.0,4.0,82,0.00,,,0.00,HR-IXPWINDi_r2_v1.2.,2013-02-20 00:09:00,
2013-02-19 18:14:00,3.8,-0.2,30.05,SE,135,0.0,4.0,82,0.00,,,0.00,HR-IXPWINDi_r2_v1.2.,2013-02-20 00:14:00,
2013-02-19 18:19:00,3.7,-0.2,30.05,NW,311,1.0,4.0,82,0.00,,,0.00,HR-IXPWINDi_r2_v1.2.,2013-02-20 00:19:00,
2013-02-19 18:24:00,3.5,-0.4,30.06,SSW,201,0.0,4.0,82,0.00,,,0.00,HR-IXPWINDi_r2_v1.2.,2013-02-20 00:24:00,
2013-02-19 18:29:00,3.4,-0.3,30.06,WSW,246,0.0,4.0,83,0.00,,,0.00,HR-IXPWINDi_r2_v1.2.,2013-02-20 00:29:00,
2013-02-19 18:35:00,3.3,-0.4,30.06,SSE,148,1.0,2.0,83,0.00,,,0.00,HR-IXPWINDi_r2_v1.2.,2013-02-20 00:35:00,
2013-02-19 18:40:00,3.1,-0.6,30.06,SSE,148,0.0,2.0,83,0.00,,,0.00,HR-IXPWINDi_r2_v1.2.,2013-02-20 00:40:00,
2013-02-19 18:45:00,2.9,-0.8,30.06,SSE,148,0.0,1.0,83,0.00,,,0.00,HR-IXPWINDi_r2_v1.2.,2013-02-20 00:45:00,
2013-02-19 18:50:00,2.8,-0.9,30.07,SE,138,0.0,1.0,83,0.00,,,0.00,HR-IXPWINDi_r2_v1.2.,2013-02-20 00:50:00,
2013-02-19 18:55:00,2.7,-0.7,30.07,SE,125,0.0,1.0,84,0.00,,,0.00,HR-IXPWINDi_r2_v1.2.,2013-02-20 00:55:00,
2013-02-19 19:00:00,2.7,-0.5,30.07,ESE,115,0.0,1.0,85,0.00,,,0.00,HR-IXPWINDi_r2_v1.2.,2013-02-20 01:00:00,
2013-02-19 19:05:00,2.6,-0.6,30.07,ESE,109,0.0,1.0,85,0.00,,,0.00,HR-IXPWINDi_r2_v1.2.,2013-02-20 01:05:00,
2013-02-19 19:11:00,2.5,-0.7,30.08,East,81,0.0,1.0,85,0.00,,,0.00,HR-IXPWINDi_r2_v1.2.,2013-02-20 01:11:00,
2013-02-19 19:16:00,2.5,-0.7,30.08,South,170,1.0,2.0,85,0.00,,,0.00,HR-IXPWINDi_r2_v1.2.,2013-02-20 01:16:00,
2013-02-19 19:21:00,2.3,-0.9,30.08,North,355,0.0,2.0,85,0.00,,,0.00,HR-IXPWINDi_r2_v1.2.,2013-02-20 01:21:00,
2013-02-19 19:26:00,2.3,-0.9,30.08,North,355,0.0,2.0,85,0.00,,,0.00,HR-IXPWINDi_r2_v1.2.,2013-02-20 01:26:00,
2013-02-19 19:31:00,2.3,-0.6,30.09,WSW,256,0.0,2.0,86,0.00,,,0.00,HR-IXPWINDi_r2_v1.2.,2013-02-20 01:31:00,
2013-02-19 19:36:00,2.2,-0.7,30.09,WSW,256,0.0,2.0,86,0.00,,,0.00,HR-IXPWINDi_r2_v1.2.,2013-02-20 01:36:00,
2013-02-19 19:41:00,2.1,-0.8,30.09,East,91,0.0,2.0,86,0.00,,,0.00,HR-IXPWINDi_r2_v1.2.,2013-02-20 01:41:00,
2013-02-19 19:47:00,2.0,-0.9,30.09,East,91,0.0,2.0,86,0.00,,,0.00,HR-IXPWINDi_r2_v1.2.,2013-02-20 01:47:00,
2013-02-19 19:52:00,1.9,-1.0,30.09,East,91,0.0,1.0,86,0.00,,,0.00,HR-IXPWINDi_r2_v1.2.,2013-02-20 01:52:00,
2013-02-19 19:57:00,1.9,-0.8,30.09,East,91,0.0,1.0,87,0.00,,,0.00,HR-IXPWINDi_r2_v1.2.,2013-02-20 01:57:00,
2013-02-19 20:02:00,2.0,-0.4,30.09,SE,134,0.0,2.0,88,0.00,,,0.00,HR-IXPWINDi_r2_v1.2.,2013-02-20 02:02:00,
2013-02-19 20:07:00,2.2,-0.2,30.09,SE,134,1.0,2.0,88,0.00,,,0.00,HR-IXPWINDi_r2_v1.2.,2013-02-20 02:07:00,
2013-02-19 20:13:00,2.2,-0.2,30.10,SE,134,0.0,1.0,88,0.00,,,0.00,HR-IXPWINDi_r2_v1.2.,2013-02-20 02:13:00,
2013-02-19 20:18:00,2.3,-0.1,30.10,SE,134,0.0,1.0,88,0.00,,,0.00,HR-IXPWINDi_r2_v1.2.,2013-02-20 02:18:00,
2013-02-19 20:23:00,2.3,-0.1,30.10,SE,134,0.0,1.0,88,0.00,,,0.00,HR-IXPWINDi_r2_v1.2.,2013-02-20 02:23:00,
2013-02-19 20:29:00,2.3,-0.1,30.10,SE,134,0.0,1.0,88,0.00,,,0.00,HR-IXPWINDi_r2_v1.2.,2013-02-20 02:29:00,
2013-02-19 20:34:00,2.3,-0.1,30.10,SE,134,0.0,1.0,88,0.00,,,0.00,HR-IXPWINDi_r2_v1.2.,2013-02-20 02:34:00,
2013-02-19 20:39:00,2.2,-0.5,30.10,SE,134,0.0,0.0,87,0.00,,,0.00,HR-IXPWINDi_r2_v1.2.,2013-02-20 02:39:00,
2013-02-19 20:44:00,2.3,-0.1,30.10,West,261,0.0,6.0,88,0.00,,,0.00,HR-IXPWINDi_r2_v1.2.,2013-02-20 02:44:00,
2013-02-19 20:50:00,2.4,0.0,30.10,NW,313,2.0,6.0,88,0.00,,,0.00,HR-IXPWINDi_r2_v1.2.,2013-02-20 02:50:00,
2013-02-19 20:55:00,2.8,0.4,30.11,WNW,294,1.0,3.0,89,0.00,,,0.00,HR-IXPWINDi_r2_v1.2.,2013-02-20 02:55:00,
2013-02-19 21:00:00,3.8,1.6,30.11,SE,125,1.0,6.0,90,0.00,,,0.00,HR-IXPWINDi_r2_v1.2.,2013-02-20 03:00:00,
2013-02-19 21:05:00,4.8,2.6,30.11,WNW,289,0.0,6.0,90,0.00,,,0.00,HR-IXPWINDi_r2_v1.2.,2013-02-20 03:05:00,
2013-02-19 21:10:00,5.7,3.5,30.11,NNW,331,0.0,7.0,90,0.00,,,0.00,HR-IXPWINDi_r2_v1.2.,2013-02-20 03:10:00,
2013-02-19 21:16:00,6.4,3.7,30.12,North,5,1.0,7.0,88,0.00,,,0.00,HR-IXPWINDi_r2_v1.2.,2013-02-20 03:16:00,
2013-02-19 21:21:00,6.8,3.8,30.12,WNW,296,2.0,5.0,87,0.00,,,0.00,HR-IXPWINDi_r2_v1.2.,2013-02-20 03:21:00,
2013-02-19 21:26:00,7.0,3.8,30.12,NNW,348,0.0,5.0,86,0.00,,,0.00,HR-IXPWINDi_r2_v1.2.,2013-02-20 03:26:00,
2013-02-19 21:32:00,7.1,3.9,30.13,NE,44,3.0,3.0,86,0.00,,,0.00,HR-IXPWINDi_r2_v1.2.,2013-02-20 03:32:00,
2013-02-19 21:37:00,7.2,3.7,30.13,SSW,207,0.0,3.0,85,0.00,,,0.00,HR-IXPWINDi_r2_v1.2.,2013-02-20 03:37:00,
2013-02-19 21:42:00,7.1,3.6,30.13,SW,217,2.0,6.0,85,0.00,,,0.00,HR-IXPWINDi_r2_v1.2.,2013-02-20 03:42:00,
2013-02-19 21:47:00,7.2,3.7,30.14,WNW,301,3.0,6.0,85,0.00,,,0.00,HR-IXPWINDi_r2_v1.2.,2013-02-20 03:47:00,
2013-02-19 21:52:00,7.3,3.8,30.14,West,265,1.0,7.0,85,0.00,,,0.00,HR-IXPWINDi_r2_v1.2.,2013-02-20 03:52:00,
2013-02-19 21:57:00,7.4,3.9,30.14,ESE,112,1.0,7.0,85,0.00,,,0.00,HR-IXPWINDi_r2_v1.2.,2013-02-20 03:57:00,
2013-02-19 22:03:00,7.4,3.9,30.14,ENE,75,2.0,4.0,85,0.00,,,0.00,HR-IXPWINDi_r2_v1.2.,2013-02-20 04:03:00,
2013-02-19 22:08:00,7.5,4.0,30.15,West,280,1.0,7.0,85,0.00,,,0.00,HR-IXPWINDi_r2_v1.2.,2013-02-20 04:08:00,
2013-02-19 22:13:00,7.5,4.0,30.15,NE,47,3.0,7.0,85,0.00,,,0.00,HR-IXPWINDi_r2_v1.2.,2013-02-20 04:13:00,
2013-02-19 22:18:00,7.4,3.9,30.16,WSW,248,1.0,4.0,85,0.00,,,0.00,HR-IXPWINDi_r2_v1.2.,2013-02-20 04:18:00,
2013-02-19 22:24:00,7.5,4.3,30.16,NW,306,1.0,4.0,86,0.00,,,0.00,HR-IXPWINDi_r2_v1.2.,2013-02-20 04:24:00,
2013-02-19 22:29:00,7.6,4.4,30.16,NW,304,0.0,4.0,86,0.00,,,0.00,HR-IXPWINDi_r2_v1.2.,2013-02-20 04:29:00,
2013-02-19 22:34:00,7.7,4.2,30.17,NNW,340,1.0,4.0,85,0.00,,,0.00,HR-IXPWINDi_r2_v1.2.,2013-02-20 04:34:00,
2013-02-19 22:39:00,7.6,4.1,30.17,SE,132,2.0,3.0,85,0.00,,,0.00,HR-IXPWINDi_r2_v1.2.,2013-02-20 04:39:00,
2013-02-19 22:44:00,7.6,4.1,30.17,West,279,2.0,3.0,85,0.00,,,0.00,HR-IXPWINDi_r2_v1.2.,2013-02-20 04:44:00,
2013-02-19 22:49:00,7.6,4.1,30.18,East,92,1.0,4.0,85,0.00,,,0.00,HR-IXPWINDi_r2_v1.2.,2013-02-20 04:49:00,
2013-02-19 22:55:00,7.6,4.1,30.18,West,271,1.0,4.0,85,0.00,,,0.00,HR-IXPWINDi_r2_v1.2.,2013-02-20 04:55:00,
2013-02-19 23:00:00,7.5,4.0,30.18,WSW,252,0.0,5.0,85,0.00,,,0.00,HR-IXPWINDi_r2_v1.2.,2013-02-20 05:00:00,
2013-02-19 23:05:00,7.6,4.4,30.19,ENE,73,0.0,5.0,86,0.00,,,0.00,HR-IXPWINDi_r2_v1.2.,2013-02-20 05:05:00,
2013-02-19 23:10:00,7.6,4.4,30.19,NW,314,0.0,3.0,86,0.00,,,0.00,HR-IXPWINDi_r2_v1.2.,2013-02-20 05:10:00,
2013-02-19 23:15:00,7.6,4.6,30.19,WSW,245,1.0,2.0,87,0.00,,,0.00,HR-IXPWINDi_r2_v1.2.,2013-02-20 05:15:00,
2013-02-19 23:20:00,7.6,4.6,30.19,ENE,63,0.0,6.0,87,0.00,,,0.00,HR-IXPWINDi_r2_v1.2.,2013-02-20 05:20:00,
2013-02-19 23:25:00,7.6,4.6,30.19,West,263,0.0,6.0,87,0.00,,,0.00,HR-IXPWINDi_r2_v1.2.,2013-02-20 05:25:00,
2013-02-19 23:30:00,7.7,4.2,30.20,NE,45,1.0,7.0,85,0.00,,,0.00,HR-IXPWINDi_r2_v1.2.,2013-02-20 05:30:00,
2013-02-19 23:35:00,7.7,4.2,30.20,NNW,341,0.0,7.0,85,0.00,,,0.00,HR-IXPWINDi_r2_v1.2.,2013-02-20 05:35:00,
2013-02-19 23:41:00,7.6,4.1,30.20,West,270,0.0,7.0,85,0.00,,,0.00,HR-IXPWINDi_r2_v1.2.,2013-02-20 05:41:00,
2013-02-19 23:46:00,7.6,4.1,30.20,SW,236,1.0,6.0,85,0.00,,,0.00,HR-IXPWINDi_r2_v1.2.,2013-02-20 05:46:00,
2013-02-19 23:51:00,7.6,3.9,30.20,East,86,1.0,8.0,84,0.00,,,0.00,HR-IXPWINDi_r2_v1.2.,2013-02-20 05:51:00,
2013-02-19 23:56:00,7.5,3.8,30.20,WSW,242,2.0,8.0,84,0.00,,,0.00,HR-IXPWINDi_r2_v1.2.,2013-02-20 05:56:00,